Quinhagak, AK

12:21 AM AKST on February 24, 2017 (GMT -0900)
Quinhagak

Weather History for PAQH - January, 2014

Change the Weather History Date:

Sunday, January 12, 2014

  Actual Average (PABE) Record (PABE)
Temperature  
Mean Temperature 17 °F -  
Max Temperature 28 °F 11 °F 45 °F (1930)
Min Temperature 6 °F 0 °F -40 °F (1934)
Degree Days  
Heating Degree Days 48    
Moisture  
Dew Point 9 °F    
Average Humidity 88    
Maximum Humidity 100    
Minimum Humidity 83    
Precipitation  
Precipitation 0.02 in - - ()
Sea Level Pressure  
Sea Level Pressure 29.05 in    
Wind  
Wind Speed 11 mph (NNE)    
Max Wind Speed 18 mph    
Max Gust Speed -    
Visibility 6 miles    
Events Fog , Snow    
Averages and records for this station are not official NWS values.
T = Trace of Precipitation, MM = Missing Value Source: NWS Daily Summary

Daily Weather History Graph

Daily Weather History Graph

Search for Another Location

Airport or City:

Trip Planner

Search our weather history database for the weather conditions in past years. The results will help you decide how hot, cold, wet, or windy it might be!

Date:

Astronomy

Jan. 12, 2014 Rise Set
Actual Time 10:36 AM AKST 5:15 PM AKST
Civil Twilight 9:43 AM AKST 6:08 PM AKST
Nautical Twilight 8:49 AM AKST 7:02 PM AKST
Astronomical Twilight 7:59 AM AKST 7:52 PM AKST
Moon 2:58 PM AKST (1/12) 7:39 AM AKST (1/12)
Length of Visible Light 8h 24m
Length of Day
6h 38m
Waxing Gibbous, 90% of the Moon is Illuminated
Jan 12
Waxing Gibbous
Jan 15
Full
Jan 23
Last Quarter
Jan 30
New
Feb 6
First Quarter

Hourly Weather History & Observations

Time (AKST) Temp. Windchill Dew Point Humidity Pressure Visibility Wind Dir Wind Speed Gust Speed Precip Events Conditions
12:56 AM 7.0 °F -7.5 °F 3.9 °F 87% 28.99 in 9.0 mi North 10.4 mph - 0.00 in Snow Light Snow
1:11 AM 6.8 °F -5.9 °F 3.2 °F 85% 28.99 in 10.0 mi North 8.1 mph - 0.00 in   Overcast
1:56 AM 7.0 °F -4.5 °F 3.0 °F 84% 29.00 in 10.0 mi North 6.9 mph - 0.00 in   Overcast
2:16 AM 6.8 °F -5.9 °F 3.2 °F 85% 28.99 in 10.0 mi North 8.1 mph - N/A   Overcast
2:31 AM 6.8 °F -5.9 °F 3.2 °F 85% 28.99 in 10.0 mi North 8.1 mph - N/A   Overcast
3:56 AM 8.1 °F -6.2 °F 3.9 °F 83% 29.00 in 10.0 mi North 10.4 mph - N/A   Overcast
4:56 AM 8.1 °F -6.2 °F 5.0 °F 87% 28.99 in 10.0 mi North 10.4 mph - N/A   Overcast
5:56 AM 7.0 °F -7.5 °F 3.0 °F 84% 28.98 in 10.0 mi North 10.4 mph - N/A   Overcast
6:56 AM 6.1 °F -7.8 °F 1.9 °F 83% 28.97 in 10.0 mi North 9.2 mph - N/A   Partly Cloudy
7:56 AM 6.1 °F -7.8 °F 1.9 °F 83% 28.98 in 10.0 mi North 9.2 mph - N/A   Mostly Cloudy
8:56 AM 6.1 °F -10.2 °F 3.0 °F 87% 28.98 in 10.0 mi North 12.7 mph - 0.00 in   Mostly Cloudy
9:56 AM 7.0 °F -9.1 °F 3.9 °F 87% 29.00 in 9.0 mi North 12.7 mph - 0.00 in Snow Light Snow
10:56 AM 8.1 °F -7.7 °F 3.9 °F 83% 29.01 in 9.0 mi North 12.7 mph - 0.00 in Snow Light Snow
11:56 AM 8.1 °F -5.3 °F 3.9 °F 83% 29.03 in 9.0 mi North 9.2 mph - 0.00 in Snow Light Snow
12:44 PM 8.6 °F -7.0 °F 5.0 °F 85% 29.03 in 2.0 mi North 12.7 mph - 0.00 in Snow Light Snow
12:56 PM 8.1 °F -7.0 °F 5.0 °F 87% 29.04 in 2.5 mi North 11.5 mph - 0.00 in Snow Light Snow
1:14 PM 8.6 °F -7.0 °F 5.0 °F 85% 29.03 in 5.0 mi North 12.7 mph - 0.00 in Snow Light Snow
1:33 PM 8.6 °F -6.3 °F 6.8 °F 92% 29.03 in 9.0 mi North 11.5 mph - 0.00 in Snow Light Snow
1:56 PM 9.0 °F -5.1 °F 6.1 °F 88% 29.05 in 3.0 mi North 10.4 mph - 0.00 in Snow Light Snow
2:56 PM 10.0 °F -3.7 °F 7.0 °F 87% 29.05 in 9.0 mi North 10.4 mph - 0.00 in Snow Light Snow
3:56 PM 12.0 °F -3.4 °F 9.0 °F 88% 29.05 in 9.0 mi North 13.8 mph - 0.00 in Snow Light Snow
4:04 PM 12.2 °F -3.1 °F 8.6 °F 85% 29.05 in 2.5 mi North 13.8 mph - 0.00 in Snow Light Snow
4:18 PM 10.4 °F -4.1 °F 8.6 °F 92% 29.06 in 1.2 mi North 11.5 mph - 0.00 in Snow Light Snow
4:25 PM 10.4 °F -4.8 °F 8.6 °F 92% 29.06 in 0.8 mi North 12.7 mph - 0.00 in Snow Light Snow
4:29 PM 10.4 °F -4.8 °F 8.6 °F 92% 29.06 in 0.5 mi North 12.7 mph - 0.00 in Fog , Snow Snow
4:37 PM 10.4 °F -3.3 °F 8.6 °F 92% 29.06 in 0.8 mi North 10.4 mph - 0.00 in Snow Light Snow
4:48 PM 10.4 °F -4.1 °F 8.6 °F 92% 29.06 in 1.2 mi North 11.5 mph - 0.00 in Snow Light Snow
4:56 PM 10.9 °F -4.1 °F 8.1 °F 88% 29.07 in 1.2 mi North 12.7 mph - 0.00 in Snow Light Snow
5:23 PM 10.4 °F -6.0 °F 6.8 °F 85% 29.06 in 2.5 mi North 15.0 mph - 0.00 in Snow Light Snow
5:26 PM 10.4 °F -6.0 °F 6.8 °F 85% 29.06 in 4.0 mi North 15.0 mph - 0.00 in Snow Light Snow
5:56 PM 9.0 °F -7.3 °F 6.1 °F 88% 29.08 in 9.0 mi North 13.8 mph - 0.00 in Snow Light Snow
6:56 PM 9.0 °F -7.3 °F 6.1 °F 88% 29.09 in 10.0 mi North 13.8 mph - 0.00 in   Overcast
7:56 PM 10.9 °F -5.4 °F 8.1 °F 88% 29.10 in 7.0 mi North 15.0 mph - 0.00 in Snow Light Snow
8:56 PM 12.9 °F -0.9 °F 10.0 °F 88% 29.11 in 9.0 mi North 11.5 mph - 0.00 in Snow Light Snow
9:14 PM 14.0 °F 2.0 °F 12.2 °F 93% 29.10 in 1.8 mi North 9.2 mph - 0.00 in Snow Light Snow
9:17 PM 15.8 °F 3.4 °F 12.2 °F 86% 29.10 in 1.0 mi North 10.4 mph - 0.00 in Snow Light Snow
9:19 PM 15.8 °F 4.2 °F 12.2 °F 86% 29.10 in 0.8 mi NNE 9.2 mph - 0.00 in Snow Light Snow
9:24 PM 15.8 °F 3.4 °F 12.2 °F 86% 29.09 in 0.5 mi North 10.4 mph - 0.00 in Fog , Snow Snow
9:46 PM 17.6 °F 8.2 °F 15.8 °F 93% 29.10 in 1.0 mi NE 6.9 mph - 0.00 in Snow Light Snow
9:49 PM 17.6 °F 8.2 °F 17.6 °F 100% 29.10 in 2.0 mi Variable 6.9 mph - 0.00 in Snow Light Snow
9:52 PM 19.4 °F 6.6 °F 19.4 °F 100% 29.09 in 3.0 mi East 12.7 mph - 0.00 in Snow Light Snow
9:56 PM 21.9 °F 8.7 °F 21.0 °F 96% 29.10 in 7.0 mi East 15.0 mph - 0.00 in Snow Light Snow
10:08 PM 26.6 °F 15.7 °F 24.8 °F 93% 29.10 in 9.0 mi East 12.7 mph - 0.02 in   Overcast
10:56 PM 28.0 °F 17.0 °F 25.0 °F 88% 29.11 in 9.0 mi East 13.8 mph - 0.02 in Snow Light Snow
11:45 PM 28.4 °F 15.8 °F 26.6 °F 93% 29.10 in 2.5 mi ESE 18.4 mph - 0.00 in Snow Light Snow
11:56 PM 28.9 °F 17.3 °F 27.0 °F 92% 29.11 in 3.0 mi ESE 16.1 mph - 0.00 in Snow Light Snow